DELFI-C3 (DO-64) (32789 NORAD) Tracking and Keplerian Element Data

This shows tracking and keplerian element data for the satellite.

Feedback or suggestion? Click here.




ElementValue
Catalog32789
NameDELFI-C3 (DO-64)
Epoch Orbit83840
Epoch Day239.0489447
Epoch Year2023
RAAN260.5427
Inclination97.2977
Eccentricity0.0006424
Argument of Perigee178.3873
Mean Anonmoly181.7399
Mean Motion15.47391914
Decay Rate0.0009287
L11 32789U 08021G 23239.04894470 .00092870 00000+0 17967-2 0 9992
L22 32789 97.2977 260.5427 0006424 178.3873 181.7399 15.47391914838406



Live tracking and technical data element details for DELFI-C3 (DO-64) (NORAD 32789). DELFI-C3 (DO-64) can be tracked NOW for your location showing map with azimuth and elevation plus other details from your city location.







IsCatalogInMostPopularTable: catalog: 32789, numindb: 433
Update: records affected: 1



GetName: 32789 DELFI-C3 (DO-64)

Hit Count: updated at: Thu, 23 Jan 2025 17:39:50 GMT